| time (UTC) | temp F | wind direction | speed MPH | gust MPH | rain 1hr in | rain 24hr in | rain mn in | humidity % | barometer mb |
| 20260504021530 | 54 | 123 | 0.0 | 0.0 | 0.00 | 0.00 | 0.00 | 63 | 1012.7 |
| 20260504020033 | 54 | 146 | 0.0 | 0.0 | 0.00 | 0.00 | 0.00 | 61 | 1012.6 |
| 20260504014529 | 54 | 160 | 0.0 | 5.0 | 0.00 | 0.00 | 0.00 | 63 | 1012.6 |
| 20260504013028 | 55 | 148 | 0.0 | 0.0 | 0.00 | 0.00 | 0.00 | 63 | 1012.5 |
| 20260504011528 | 55 | 219 | 0.0 | 0.0 | 0.00 | 0.00 | 0.00 | 60 | 1012.3 |
| 20260504010027 | 57 | 188 | 1.0 | 8.0 | 0.00 | 0.00 | 0.00 | 54 | 1012.7 |
| 20260504004528 | 58 | 238 | 1.0 | 6.0 | 0.00 | 0.00 | 0.00 | 48 | 1012.8 |
| 20260504003026 | 59 | 240 | 0.0 | 6.0 | 0.00 | 0.00 | 0.00 | 46 | 1012.6 |
| 20260504001525 | 59 | 154 | 1.0 | 7.0 | 0.00 | 0.00 | 0.00 | 44 | 1012.5 |
| 20260504000024 | 59 | 170 | 0.0 | 6.0 | 0.00 | 0.00 | 0.00 | 43 | 1012.3 |
| 20260503234527 | 60 | 120 | 0.0 | 8.0 | 0.00 | 0.00 | 0.00 | 42 | 1012.4 |
| 20260503233024 | 60 | 122 | 0.0 | 6.0 | 0.00 | 0.00 | 0.00 | 41 | 1012.3 |
| 20260503231521 | 60 | 239 | 0.0 | 8.0 | 0.00 | 0.00 | 0.00 | 41 | 1012.8 |
| 20260503230018 | 60 | 167 | 1.0 | 11.0 | 0.00 | 0.00 | 0.00 | 41 | 1013.0 |
| 20260503224516 | 61 | 257 | 1.0 | 7.0 | 0.00 | 0.00 | 0.00 | 40 | 1013.4 |
| 20260503223022 | 61 | 228 | 2.0 | 7.0 | 0.00 | 0.00 | 0.00 | 40 | 1013.5 |
| 20260503221514 | 61 | 256 | 1.0 | 12.0 | 0.00 | 0.00 | 0.00 | 40 | 1013.8 |
| 20260503220012 | 62 | 70 | 1.0 | 12.0 | 0.00 | 0.00 | 0.00 | 38 | 1014.1 |
| 20260503214510 | 61 | 249 | 2.0 | 12.0 | 0.00 | 0.00 | 0.00 | 39 | 1014.2 |
| 20260503213009 | 62 | 178 | 1.0 | 10.0 | 0.00 | 0.00 | 0.00 | 38 | 1014.2 |
| 20260503211511 | 62 | 117 | 1.0 | 12.0 | 0.00 | 0.00 | 0.00 | 38 | 1014.4 |
| 20260503210015 | 62 | 146 | 4.0 | 13.0 | 0.00 | 0.00 | 0.00 | 38 | 1014.9 |
| 20260503204505 | 63 | 240 | 1.0 | 8.0 | 0.00 | 0.00 | 0.00 | 38 | 1014.8 |
| 20260503203012 | 64 | 190 | 5.0 | 16.0 | 0.00 | 0.00 | 0.00 | 35 | 1014.8 |
| 20260503201501 | 64 | 245 | 3.0 | 12.0 | 0.00 | 0.00 | 0.00 | 36 | 1015.0 |
| 20260503194558 | 61 | 240 | 4.0 | 16.0 | 0.00 | 0.00 | 0.00 | 37 | 1015.3 |
| 20260503193057 | 63 | 251 | 4.0 | 10.0 | 0.00 | 0.00 | 0.00 | 36 | 1015.9 |
| 20260503191604 | 64 | 248 | 5.0 | 11.0 | 0.00 | 0.00 | 0.00 | 35 | 1016.1 |
| 20260503190057 | 63 | 189 | 2.0 | 11.0 | 0.00 | 0.00 | 0.00 | 37 | 1016.4 |
| 20260503184609 | 63 | 208 | 3.0 | 12.0 | 0.00 | 0.00 | 0.00 | 36 | 1016.6 |
| 20260503183049 | 61 | 119 | 2.0 | 14.0 | 0.00 | 0.00 | 0.00 | 37 | 1016.8 |
| 20260503181547 | 64 | 192 | 1.0 | 15.0 | 0.00 | 0.00 | 0.00 | 35 | 1016.9 |
| 20260503180045 | 62 | 241 | 5.0 | 14.0 | 0.00 | 0.00 | 0.00 | 37 | 1017.2 |
| 20260503174553 | 61 | 229 | 0.0 | 11.0 | 0.00 | 0.00 | 0.00 | 38 | 1017.4 |
| 20260503173041 | 62 | 252 | 2.0 | 10.0 | 0.00 | 0.00 | 0.00 | 37 | 1017.5 |
| 20260503171540 | 61 | 210 | 1.0 | 16.0 | 0.00 | 0.00 | 0.00 | 40 | 1018.1 |
| 20260503081534 | 37 | 244 | 0.0 | 0.0 | 0.00 | 0.00 | 0.00 | 78 | 1018.2 |
| 20260503071522 | 38 | 245 | 0.0 | 0.0 | 0.00 | 0.00 | 0.00 | 76 | 1018.0 |
| 20260503054517 | 39 | 275 | 0.0 | 0.0 | 0.00 | 0.00 | 0.00 | 73 | 1018.4 |
| 20260503053006 | 40 | 274 | 0.0 | 0.0 | 0.00 | 0.00 | 0.00 | 72 | 1018.4 |
| 20260503051505 | 40 | 275 | 0.0 | 0.0 | 0.00 | 0.00 | 0.00 | 71 | 1018.4 |
| 20260503050005 | 40 | 275 | 0.0 | 0.0 | 0.00 | 0.00 | 0.00 | 72 | 1018.4 |
| 20260503044504 | 40 | 274 | 0.0 | 0.0 | 0.00 | 0.00 | 0.00 | 73 | 1018.4 |
| 20260503043002 | 40 | 275 | 0.0 | 0.0 | 0.00 | 0.00 | 0.00 | 72 | 1018.5 |
| 20260503041558 | 40 | 8 | 0.0 | 0.0 | 0.00 | 0.00 | 0.00 | 72 | 1018.4 |
| 20260503040056 | 40 | 8 | 0.0 | 0.0 | 0.00 | 0.00 | 0.00 | 72 | 1018.5 |
| 20260503034556 | 41 | 8 | 0.0 | 0.0 | 0.00 | 0.00 | 0.00 | 71 | 1018.6 |
| 20260503033059 | 41 | 8 | 0.0 | 0.0 | 0.00 | 0.00 | 0.00 | 70 | 1018.5 |
| 20260503031551 | 42 | 8 | 0.0 | 0.0 | 0.00 | 0.00 | 0.00 | 67 | 1018.5 |
| 20260503030051 | 43 | 8 | 0.0 | 0.0 | 0.00 | 0.00 | 0.00 | 64 | 1018.6 |
| 20260503024552 | 43 | 8 | 0.0 | 0.0 | 0.00 | 0.00 | 0.00 | 63 | 1018.5 |
| 20260503023050 | 44 | 4 | 0.0 | 0.0 | 0.00 | 0.00 | 0.00 | 62 | 1018.4 |